{"data":{"norad_id":62860,"epoch":"2026-05-25T03:02:17.815776Z","epoch_age_seconds":60741,"freshness":"FRESH","line1":"1 62860U 25022G   26145.12659509  .00016940  00000+0  58252-3 0  9992","line2":"2 62860  53.1560 134.5228 0001143  76.7658 283.3471 15.30213164 73595","mean_motion":15.30213164,"eccentricity":0.0001143,"inclination_deg":53.156,"raan_deg":134.5228,"arg_perigee_deg":76.7658,"mean_anomaly_deg":283.3471,"bstar":0.00058252,"rev_number":7359,"period_min":94.10453614422,"perigee_km":474.39243072096,"apogee_km":475.9590980189,"semimajor_km":6853.3127643699,"source":"CELESTRAK","updated_at":"2026-05-25T13:38:19.784094Z"}}